Home   Weather   Bruges   Past weeks

Flag for Belgium Past Weather in Bruges, Belgium — Yesterday and Last 2 Weeks

Now
41 °F

Scattered showers. Scattered clouds.


Feels Like: 34 °F
Forecast: 36 / 50 °F
Wind: 13 mph from Northeast

Location: Oostende Airport

Current Time: Apr 26, 2017 at 7:53:12 am

Latest Report: Apr 26, 2017 at 7:20 am


Visibility: N/A

Pressure: 29.92 "Hg

Humidity: 76%

Dew Point: 34 °F

Location of BrugesLocation

Past Weather in Bruges — Graph

°F

Bruges Temperature Yesterday

Maximum temperature yesterday: 48 °F (at 12:50 am)
Minimum temperature yesterday: 41 °F (at 5:20 am)
Average temperature yesterday: 45 °F

High & Low Weather Summary for the Past Weeks

 TemperatureHumidityPressure
High55 °F (Apr 21, 1:20 pm)94% (Apr 24, 9:50 pm)30.66 "Hg (Apr 24, 9:50 pm)
Low28 °F (Apr 20, 6:50 am)40% (Apr 19, 11:50 am)29.80 "Hg (Apr 25, 1:20 am)
Average47 °F70%30.22 "Hg
* Reported Apr 11 6:20 am — Apr 26 6:20 am, Bruges, Weather by CustomWeather, © 2017

Note: Actual official high and low records may vary slightly from our data, if they occured in-between our weather recording intervals... More about our weather records

Advertising

Bruges Weather History for the Previous 24 Hours

Scroll right to see more
 ConditionsComfort  
Time TempWeatherWind HumidityBarometerVisibility
6:20 am
Wed, Apr 26
41 °FScattered showers. Passing clouds.8 mph76%29.89 "HgN/A
5:50 am41 °FPartly cloudy.15 mph81%29.89 "HgN/A
5:20 am39 °FPartly cloudy.3 mph81%29.89 "HgN/A
4:50 am39 °FSprinkles. Passing clouds.14 mph81%29.89 "Hg6 mi
4:20 am41 °FPassing clouds.9 mph76%29.89 "HgN/A
3:50 am41 °FPassing clouds.14 mph81%29.89 "HgN/A
3:20 am41 °FPassing clouds.13 mph76%29.89 "HgN/A
2:50 am41 °FPassing clouds.14 mph81%29.89 "HgN/A
2:20 am41 °FSprinkles. Passing clouds.14 mph76%29.89 "Hg4 mi
1:50 am43 °FPassing clouds.10 mph71%29.89 "HgN/A
1:20 am43 °FPassing clouds.13 mph71%29.92 "HgN/A
12:50 am43 °FPassing clouds.12 mph71%29.89 "HgN/A
12:20 am43 °FPassing clouds.10 mph71%29.89 "HgN/A
11:50 pm
Tue, Apr 25
43 °FPassing clouds.13 mph66%29.89 "HgN/A
11:20 pm45 °FPassing clouds.13 mph66%29.89 "HgN/A
10:50 pm45 °FPassing clouds.12 mph66%29.89 "HgN/A
10:20 pm45 °FPassing clouds.13 mph66%29.89 "HgN/A
9:50 pm45 °FPassing clouds.8 mph49%29.89 "HgN/A
9:20 pm43 °FPassing clouds.8 mph53%29.89 "HgN/A
8:50 pm45 °FPassing clouds.8 mph49%29.89 "HgN/A
8:20 pm46 °FPassing clouds.9 mph46%29.89 "HgN/A
7:50 pm46 °FPassing clouds.8 mph46%29.89 "HgN/A
7:20 pm46 °FPassing clouds.10 mph46%29.89 "HgN/A
6:50 pm46 °FPassing clouds.10 mph53%29.89 "HgN/A
6:20 pm46 °FPassing clouds.12 mph50%29.89 "HgN/A
5:50 pm46 °FPassing clouds.13 mph50%29.92 "HgN/A
5:20 pm48 °FPassing clouds.13 mph50%29.92 "HgN/A
4:50 pm46 °FPassing clouds.14 mph53%29.92 "HgN/A
4:20 pm48 °FScattered clouds.15 mph54%29.92 "HgN/A
3:50 pm46 °FScattered clouds.14 mph53%29.92 "HgN/A
3:20 pm48 °FScattered clouds.13 mph58%29.92 "HgN/A
2:50 pm46 °FScattered clouds.14 mph57%29.92 "HgN/A
2:20 pm45 °FScattered clouds.15 mph61%29.92 "HgN/A
1:50 pm45 °FScattered clouds.15 mph61%29.92 "HgN/A
1:20 pm46 °FScattered clouds.15 mph62%29.92 "HgN/A
12:50 pm46 °FScattered clouds.13 mph62%29.92 "HgN/A
12:20 pm45 °FBroken clouds.14 mph66%29.92 "HgN/A
11:50 am45 °FBroken clouds.14 mph66%29.89 "HgN/A
11:20 am43 °FBroken clouds.15 mph71%29.89 "HgN/A
10:50 am43 °FBroken clouds.15 mph71%29.89 "HgN/A
10:20 am43 °FBroken clouds.15 mph66%29.89 "HgN/A
9:50 am43 °FBroken clouds.17 mph66%29.89 "HgN/A
9:20 am41 °FBroken clouds.17 mph70%29.86 "HgN/A
8:50 am43 °FScattered clouds.18 mph66%29.86 "HgN/A
8:20 am43 °FPassing clouds.18 mph66%29.86 "HgN/A
7:50 am41 °FPassing clouds.20 mph66%29.83 "HgN/A
7:20 am41 °FPassing clouds.18 mph61%29.83 "HgN/A
Weather by CustomWeather, © 2017

See weather overviewHow to use our weather pages